Total_Precipitation_Accumulation
0.04 0.03 0.03 0.04 0.05 0.03 0.03 0.03 0.03 0.03 0.03 0.04 0.06 0.06 0.09 0.10 0.14 0.14 0.18 0.24 0.33 0.34 0.35 0.38 0.52 0.57 0.52 0.56 0.51 0.47 0.55 0.52 0.43 0.50 0.58 0.67 0.70 0.73 0.80 0.85 0.90 1.00
0.03 0.04 0.04 0.05 0.05 0.04 0.04 0.04 0.04 0.05 0.07 0.07 0.06 0.06 0.09 0.07 0.14 0.13 0.14 0.16 0.19 0.23 0.24 0.30 0.29 0.38 0.37 0.43 0.41 0.51 0.46 0.44 0.51 0.43 0.43 0.48 0.58 0.55 0.60 0.63 0.70 0.76
0.08 0.05 0.05 0.07 0.08 0.08 0.07 0.08 0.09 0.08 0.09 0.08 0.08 0.11 0.20 0.12 0.09 0.09 0.11 0.16 0.18 0.30 0.27 0.39 0.41 0.43 0.52 0.46 0.35 0.37 0.45 0.54 0.53 0.52 0.59 0.49 0.48 0.50 0.50 0.52 0.58 0.66
0.06 0.06 0.07 0.08 0.08 0.10 0.09 0.10 0.10 0.11 0.10 0.10 0.11 0.10 0.11 0.13 0.13 0.15 0.16 0.17 0.17 0.18 0.24 0.26 0.33 0.39 0.40 0.51 0.65 0.63 0.56 0.55 0.52 0.52 0.53 0.56 0.55 0.52 0.52 0.51 0.57 0.61
0.06 0.07 0.08 0.08 0.08 0.11 0.11 0.10 0.11 0.12 0.15 0.15 0.16 0.15 0.18 0.17 0.18 0.19 0.21 0.26 0.22 0.23 0.31 0.26 0.25 0.28 0.27 0.29 0.34 0.39 0.38 0.40 0.43 0.45 0.45 0.50 0.55 0.59 0.58 0.59 0.62 0.66
0.09 0.10 0.12 0.13 0.12 0.13 0.16 0.19 0.17 0.18 0.23 0.19 0.17 0.15 0.17 0.19 0.20 0.21 0.21 0.23 0.24 0.23 0.25 0.45 0.31 0.30 0.34 0.28 0.29 0.29 0.31 0.31 0.33 0.36 0.41 0.46 0.45 0.45 0.50 0.50 0.57 0.56
0.15 0.16 0.16 0.20 0.17 0.19 0.21 0.22 0.23 0.27 0.21 0.22 0.26 0.25 0.18 0.19 0.18 0.20 0.21 0.22 0.24 0.26 0.28 0.35 0.33 0.38 0.35 0.37 0.40 0.38 0.39 0.39 0.40 0.41 0.43 0.43 0.43 0.45 0.46 0.54 0.58 0.59
0.19 0.19 0.21 0.20 0.21 0.19 0.20 0.21 0.29 0.28 0.27 0.23 0.27 0.19 0.23 0.20 0.21 0.22 0.22 0.23 0.25 0.25 0.25 0.27 0.35 0.37 0.36 0.40 0.41 0.40 0.40 0.41 0.45 0.50 0.48 0.49 0.47 0.49 0.46 0.50 0.55 0.60
0.20 0.21 0.21 0.21 0.22 0.22 0.28 0.28 0.26 0.27 0.27 0.25 0.22 0.21 0.21 0.23 0.22 0.23 0.23 0.23 0.24 0.22 0.22 0.25 0.27 0.30 0.29 0.36 0.40 0.41 0.40 0.39 0.40 0.43 0.45 0.46 0.46 0.46 0.46 0.46 0.54 0.57
0.22 0.21 0.22 0.23 0.28 0.26 0.25 0.24 0.30 0.25 0.25 0.24 0.25 0.25 0.26 0.24 0.23 0.22 0.23 0.23 0.25 0.26 0.30 0.25 0.26 0.24 0.27 0.31 0.33 0.32 0.37 0.40 0.37 0.37 0.39 0.43 0.46 0.45 0.45 0.50 0.54 0.59
0.25 0.25 0.26 0.26 0.26 0.25 0.26 0.26 0.31 0.26 0.26 0.31 0.29 0.31 0.36 0.29 0.28 0.26 0.27 0.28 0.28 0.27 0.25 0.25 0.25 0.25 0.27 0.28 0.28 0.28 0.32 0.34 0.36 0.38 0.40 0.41 0.43 0.46 0.50 0.53 0.54 0.56
0.25 0.24 0.24 0.25 0.25 0.29 0.26 0.26 0.27 0.28 0.28 0.32 0.37 0.28 0.32 0.30 0.32 0.31 0.31 0.29 0.28 0.28 0.27 0.30 0.28 0.28 0.29 0.33 0.29 0.27 0.27 0.28 0.29 0.31 0.31 0.34 0.37 0.40 0.41 0.46 0.50 0.50
0.23 0.24 0.24 0.24 0.25 0.26 0.27 0.28 0.28 0.27 0.29 0.30 0.31 0.34 0.37 0.37 0.38 0.34 0.33 0.33 0.32 0.31 0.31 0.31 0.30 0.29 0.30 0.30 0.30 0.30 0.31 0.32 0.31 0.31 0.31 0.31 0.31 0.32 0.31 0.34 0.37 0.40
0.26 0.26 0.25 0.26 0.27 0.34 0.28 0.28 0.29 0.31 0.33 0.33 0.36 0.37 0.41 0.41 0.40 0.35 0.33 0.32 0.33 0.33 0.31 0.30 0.30 0.30 0.30 0.31 0.32 0.31 0.33 0.34 0.34 0.37 0.38 0.35 0.32 0.28 0.28 0.30 0.31 0.31
0.27 0.27 0.28 0.30 0.29 0.30 0.31 0.31 0.32 0.35 0.33 0.36 0.39 0.43 0.39 0.39 0.39 0.37 0.36 0.36 0.32 0.32 0.33 0.30 0.32 0.31 0.31 0.36 0.38 0.37 0.40 0.47 0.46 0.47 0.44 0.42 0.39 0.37 0.34 0.31 0.30 0.29
0.30 0.31 0.33 0.36 0.34 0.35 0.33 0.32 0.32 0.34 0.38 0.37 0.42 0.42 0.42 0.37 0.38 0.39 0.41 0.49 0.38 0.35 0.34 0.37 0.35 0.33 0.33 0.43 0.45 0.59 0.70 0.74 0.76 0.72 0.68 0.65 0.62 0.56 0.48 0.41 0.37 0.34
0.34 0.36 0.35 0.35 0.36 0.34 0.35 0.37 0.38 0.39 0.41 0.44 0.44 0.44 0.46 0.48 0.46 0.49 0.46 0.45 0.43 0.44 0.47 0.44 0.42 0.37 0.37 0.55 0.76 0.98 1.02 1.08 1.03 0.93 0.80 0.73 0.67 0.65 0.55 0.45 0.38 0.34
0.37 0.37 0.38 0.40 0.40 0.41 0.43 0.46 0.45 0.47 0.48 0.48 0.54 0.51 0.53 0.52 0.57 0.57 0.49 0.46 0.47 0.48 0.50 0.48 0.49 0.43 0.50 0.79 0.97 1.25 1.52 1.44 1.27 1.11 0.95 0.82 0.73 0.66 0.62 0.61 0.48 0.43
0.39 0.41 0.43 0.45 0.46 0.53 0.48 0.52 0.53 0.53 0.53 0.55 0.56 0.56 0.57 0.60 0.62 0.55 0.54 0.54 0.55 0.60 0.55 0.52 0.52 0.48 0.61 0.89 1.07 1.42 1.75 1.83 1.49 1.25 1.12 0.87 0.74 0.72 0.62 0.56 0.52 0.56
0.41 0.44 0.47 0.48 0.49 0.48 0.49 0.52 0.54 0.55 0.54 0.60 0.58 0.57 0.61 0.62 0.59 0.61 0.60 0.65 0.66 0.67 0.65 0.63 0.59 0.57 0.67 1.02 1.34 1.61 1.97 2.20 1.62 1.46 1.17 0.97 0.84 0.70 0.63 0.58 0.52 0.51
0.43 0.49 0.53 0.49 0.48 0.47 0.49 0.50 0.52 0.51 0.51 0.53 0.57 0.61 0.64 0.67 0.67 0.68 0.69 0.71 0.73 0.82 0.79 0.77 0.67 0.65 0.89 1.28 1.53 1.78 2.12 2.64 1.94 1.56 1.23 1.00 0.81 0.68 0.65 0.59 0.54 0.51
0.42 0.45 0.46 0.50 0.47 0.48 0.52 0.53 0.52 0.51 0.56 0.55 0.59 0.62 0.63 0.64 0.60 0.61 0.62 0.64 0.63 0.67 0.73 0.72 0.59 0.68 0.97 1.28 1.56 1.92 2.41 2.23 1.98 1.57 1.24 0.99 0.81 0.70 0.62 0.56 0.52 0.53
0.42 0.44 0.46 0.45 0.46 0.48 0.49 0.51 0.52 0.50 0.50 0.51 0.58 0.54 0.52 0.49 0.50 0.49 0.52 0.58 0.58 0.59 0.62 0.59 0.70 0.66 0.89 1.19 1.37 1.76 2.50 2.52 2.13 1.59 1.21 0.96 0.76 0.65 0.60 0.56 0.51 0.51
0.39 0.42 0.46 0.44 0.45 0.46 0.44 0.42 0.41 0.43 0.46 0.46 0.53 0.51 0.50 0.49 0.47 0.50 0.51 0.56 0.57 0.61 0.58 0.64 0.64 0.60 0.77 1.06 1.26 1.59 2.07 2.10 1.96 1.68 1.25 0.99 0.84 0.70 0.64 0.60 0.51 0.53
0.40 0.40 0.42 0.43 0.43 0.40 0.38 0.40 0.39 0.41 0.43 0.43 0.47 0.47 0.48 0.46 0.56 0.53 0.56 0.52 0.54 0.56 0.59 0.68 0.66 0.58 0.65 0.89 1.18 1.62 1.89 1.97 1.87 1.61 1.37 1.08 0.93 0.82 0.67 0.57 0.49 0.46
0.37 0.38 0.37 0.40 0.42 0.39 0.37 0.38 0.39 0.42 0.40 0.43 0.43 0.42 0.44 0.44 0.45 0.47 0.48 0.50 0.53 0.61 0.63 0.63 0.63 0.60 0.64 0.79 1.17 1.54 1.67 1.69 1.64 1.50 1.39 1.18 1.03 0.88 0.85 0.74 0.59 0.53